User: anonymous   Login
Location: Unspecified
(0.0000°N, 0.0000°E)
Time: 11:57:24
(UTC+00:00)
Language:

Marecs 1 - Orbit

View from above orbital plane
View from above orbital plane
View from above satellite
View from above satellite

Ground track
Ground track

The orbit data is extracted from the following two-line orbital elements,

1 13010U 81122A   18175.54535847 -.00000188  00000-0  00000+0 0  9999
2 13010  15.2911 349.7724 0114850 194.7201 152.1593  0.95039434 83650
Epoch (UTC): 24 June 2018 13:05:18
Eccentricity: 0.0114850
inclination: 15.2911°
perigee height: 36818 km
apogee height: 37822 km
right ascension of ascending node: 349.7724°
argument of perigee: 194.7201°
revolutions per day: 0.95039434
mean anomaly at epoch: 152.1593°
orbit number at epoch: 8365

The dashed part of the orbit path shows where the satellite is in the earth's shadow,  

DLR